Location: Gull Harbor
(47.1000°N, 122.9000°W)
Time: 21:00:48
(UTC-07:00)

ISS - Pass Details

Date: 25 March 2019
Orbit: 408 x 410 km, 51.6° (Epoch: 22 April)

Event Time Altitude Azimuth Distance (km) Brightness Sun altitude
Rises 21:30:16 0° 267° (W) 2,335 1.1 -20.2°
Reaches altitude 10° 21:32:25 10° 275° (W) 1,474 0.0 -20.6°
Maximum altitude 21:35:35 42° 348° (NNW) 594 -2.8 -21.0°
Enters shadow 21:35:58 40° 9° (N) 616 -2.9 -21.1°
